Orbital Elements at Epoch 2459200.5 (2020-Dec-17.0) TDB
Reference: JPL 15 (heliocentric ecliptic J2000)
Element | Value | Uncertainty (1-sigma) | Units |
e | .1377427169009286 | 3.84e-08 | |
a | 2.288386519421649 | 9.5974e-09 | au |
q | 1.973177942917051 | 8.936e-08 | au |
i | 3.925566236251269 | 5.836e-06 | deg |
node | 169.9069390942338 | 6.1868e-05 | deg |
peri | 256.2561127028527 | 6.5872e-05 | deg |
M | 66.0588235821059 | 2.2674e-05 | deg |
tp | 2458968.482452190528 (2020-Apr-28.98245219) | 7.9125e-05 | TDB |
period | 1264.423322761616 3.46 | 7.9544e-06 2.178e-08 | d yr |
n | .2847147735409745 | 1.7911e-09 | deg/d |
Q | 2.603595095926246 | 1.0919e-08 | au |
|
| | Orbit Determination Parameters
Additional Information
|